Home > Products > Valid Products > RWR

000
ASUS45 KTFX 261110
RWRMT
MONTANA REGIONAL WEATHER ROUNDUP
NATIONAL WEATHER SERVICE GREAT FALLS MT
500 AM MDT THU MAY 26 2016

NOTE: "FAIR" INDICATES FEW OR NO CLOUDS BELOW 12000 FEET WITH NO
SIGNIFICANT WEATHER AND/OR OBSTRUCTIONS TO VISIBILITY.

MTZ001>007-043-261200-
WEST OF THE DIVIDE

CITY           SKY/WX    TMP DP  RH WIND       PRES   REMARKS
KALISPELL      CLOUDY    47  47 100 CALM      29.99S
MISSOULA       CLOUDY    51  46  83 CALM      30.04S
BUTTE          CLOUDY    37  34  89 E5        30.06S
MULLAN PASS    CLOUDY    42  38  85 W5        30.08S
ANACONDA         N/A     45  39  81 W3        30.05R
DEER LODGE       N/A     46  43  87 CALM      30.05S
EUREKA           N/A     54  46  76 SE6       29.97S
HAMILTON         N/A     50  41  71 S3        30.04S
LIBBY            N/A     48  46  93 CALM      30.00S
$$

MTZ008-052>055-261200-
SOUTHWEST MONTANA

CITY           SKY/WX    TMP DP  RH WIND       PRES   REMARKS
BOZEMAN        CLOUDY    47  42  83 E5        30.01S
DILLON         MOCLDY    40  33  76 S9        30.04S
ENNIS          MOCLDY    39  34  81 CALM      30.10R
$$

MTZ009-010-012-014-046-048-049-054-261200-
EAST SLOPES AND CENTRAL MONTANA

CITY           SKY/WX    TMP DP  RH WIND       PRES   REMARKS
CUT BANK       LGT RAIN  45  42  89 NW3       29.95S
GREAT FALLS    CLOUDY    42  39  89 SW6       29.95R
MALMSTROM AFB  PTCLDY    47  42  83 SW3       29.95R
HELENA         CLOUDY    49  42  77 CALM      29.98S
CHOTEAU          N/A     46  43  87 CALM      29.96S
$$

MTZ011-013-016-021-045-047-050-051-261200-
NORTH CENTRAL MONTANA

CITY           SKY/WX    TMP DP  RH WIND       PRES   REMARKS
HAVRE            N/A    N/A N/A N/A MISG      29.91S
LEWISTOWN      MOCLDY    45  41  86 SW6       29.94R
N BAR RANCH      N/A     39  37  93 NW5       29.95S
CHINOOK          N/A     45  45 100 CALM      29.91S
$$

MTZ017>020-022>027-061-062-261200-
NORTHEAST MONTANA

CITY           SKY/WX    TMP DP  RH WIND       PRES   REMARKS
GLASGOW        PTCLDY    44  42  93 W6        29.83S
JORDAN           N/A     50  45  83 W10       29.85S
SIDNEY         MOCLDY    46  44  93 N5        29.81F
WOLF POINT     PTCLDY    43  42  97 SW3       29.83R
PLENTYWOOD       N/A     52  52 100 W7        29.79S
$$

MTZ028>42-056>058-261200-
SOUTHCENTRAL AND SOUTHEAST MONTANA

CITY           SKY/WX    TMP DP  RH WIND       PRES   REMARKS
BAKER          PTCLDY    45  42  89 W8        29.86S
BILLINGS       PTCLDY    49  42  77 SW12      29.93S
LIVINGSTON     MOCLDY    45  39  79 NW7       29.99R
MILES CITY     CLOUDY    49  45  86 W8        29.86F
FORSYTH          N/A     48  48 100 W3        29.88R
$$

REGIONAL REPORTS...DAKOTAS

CITY           SKY/WX    TMP DP  RH WIND       PRES   REMARKS
WILLISTON      FOG       47  46  97 W5        29.80F VSB 3/4
MINOT          CLOUDY    57  54  89 W9        29.75R
DICKINSON      CLOUDY    41  38  89 SW3       29.80F
BEACH          CLOUDY    48  48 100 W9        29.86S
CROSBY         CLOUDY    54  54 100 NW3       29.79S FOG
WATFORD CITY     N/A     39  39 100 SW6       29.81S FOG
BISMARCK       CLEAR     45  44  97 SW3       29.80S
GRAND FORKS    CLOUDY    57  55  93 SW3       29.71S
FARGO          CLEAR     54  51  90 W7        29.73S
BUFFALO SD       N/A     42  38  85 S5        29.81R
RAPID CITY     CLEAR     46  42  86 CALM      29.88S
$$

REGIONAL REPORTS...WYOMING/IDAHO/WASHINGTON

CITY           SKY/WX    TMP DP  RH WIND       PRES   REMARKS
GILLETTE       CLEAR     42  39  89 W7        29.94R
SHERIDAN       CLOUDY    49  41  74 W13       29.92F
BUFFALO WY     PTCLDY    46  37  71 W10       29.96S
CODY           CLOUDY    41  37  87 CALM      29.99S
YELLOWSTONE LA   N/A     30  28  92 CALM      30.12S
IDAHO FALLS    MOCLDY    41  38  89 CALM      30.04F
SALMON         CLEAR     39  34  81 CALM      30.06S
BOISE          CLEAR     49  41  74 S5        30.01S
SPOKANE        PTCLDY    51  43  74 S8        30.02R
$$

REGIONAL REPORTS...ALBERTA

CITY           SKY/WX    TMP DP  RH WIND       PRES   REMARKS
EDMONTON       CLOUDY    54  50  87 W7        29.90R
CALGARY        PTCLDY    46  43  87 N3        29.93F
LETHBRIDGE     CLOUDY    46  45  93 W2        29.92F
MEDICINE HAT   CLEAR     41  41 100 S6        29.93R
WATERTON GATE    N/A     48  45  87 S8          N/A
MILK RIVER       N/A     43  41  93 NW7         N/A
ONEFOUR          N/A     41  39  93 NW5         N/A
$$

REGIONAL REPORTS...SASKATCHEWAN

CITY           SKY/WX    TMP DP  RH WIND       PRES   REMARKS
SWIFT CURRENT  CLOUDY    50  50 100 N7        29.88S FOG
REGINA         LGT RAIN  52  52 100 NE14      29.83S
SASKATOON      MOCLDY    52  48  87 N7        29.89S
CYPRESS HILLS    N/A     43  41  93 NW3         N/A
VAL MARIE        N/A     46  45  93 NW3         N/A
ROCKGLEN         N/A     48  48 100 NW9         N/A
ASSINIBOIA       N/A     52  50  93 CALM        N/A
$$






000
ASUS45 KTFX 260610
RWRMT
MONTANA REGIONAL WEATHER ROUNDUP
NATIONAL WEATHER SERVICE GREAT FALLS MT
1200 AM MDT THU MAY 26 2016

NOTE: "FAIR" INDICATES FEW OR NO CLOUDS BELOW 12000 FEET WITH NO
SIGNIFICANT WEATHER AND/OR OBSTRUCTIONS TO VISIBILITY.

MTZ001>007-043-260700-
WEST OF THE DIVIDE

CITY           SKY/WX    TMP DP  RH WIND       PRES   REMARKS
KALISPELL      MOCLDY    51  50  96 CALM      29.98R
MISSOULA       PTCLDY    51  45  79 CALM      30.02S
BUTTE          CLOUDY    45  35  68 CALM      30.05R
MULLAN PASS    MOCLDY    43  40  89 NW6       30.08F
ANACONDA         N/A     52  37  58 W10       30.02S
DEER LODGE       N/A     45  39  81 W5        30.04R
EUREKA           N/A     55  46  71 E7        29.96
HAMILTON         N/A     50  39  66 S6        30.04R
LIBBY            N/A     52  46  82 CALM      29.99R
$$

MTZ008-052>055-260700-
SOUTHWEST MONTANA

CITY           SKY/WX    TMP DP  RH WIND       PRES   REMARKS
BOZEMAN        CLOUDY    48  43  82 NE6       29.99R
DILLON         MOCLDY    48  33  56 S3        30.02R
ENNIS          CLOUDY    48  37  66 MISG      30.08R
$$

MTZ009-010-012-014-046-048-049-054-260700-
EAST SLOPES AND CENTRAL MONTANA

CITY           SKY/WX    TMP DP  RH WIND       PRES   REMARKS
CUT BANK       CLEAR     48  40  73 CALM      29.94S
GREAT FALLS    PTCLDY    45  41  86 SW9       29.93S
MALMSTROM AFB  PTCLDY    48  44  86 SW8       29.93R
HELENA         CLEAR     50  42  74 W7        29.95S
CHOTEAU          N/A     48  46  93 CALM      29.95S
$$

MTZ011-013-016-021-045-047-050-051-260700-
NORTH CENTRAL MONTANA

CITY           SKY/WX    TMP DP  RH WIND       PRES   REMARKS
HAVRE            N/A    N/A N/A N/A MISG      29.89S
LEWISTOWN      CLOUDY    45  40  82 NE5       29.93R
N BAR RANCH      N/A     43  39  87 CALM      29.94R
CHINOOK          N/A     46  45  93 CALM      29.89S
$$

MTZ017>020-022>027-061-062-260700-
NORTHEAST MONTANA

CITY           SKY/WX    TMP DP  RH WIND       PRES   REMARKS
GLASGOW        PTCLDY    50  43  77 SW7       29.84S
JORDAN           N/A     51  44  77 NW7       29.86R
SIDNEY         CLEAR     50  45  81 W9        29.82R
WOLF POINT     PTCLDY    49  44  83 W5        29.82F
PLENTYWOOD       N/A     48  48 100 W7        29.82S
$$

MTZ028>42-056>058-260700-
SOUTHCENTRAL AND SOUTHEAST MONTANA

CITY           SKY/WX    TMP DP  RH WIND       PRES   REMARKS
BAKER          CLEAR     49  44  83 SW9       29.87R
BILLINGS       MOCLDY    50  43  77 S8        29.93F
LIVINGSTON     CLOUDY    50  40  68 NW9       29.98R
MILES CITY     CLOUDY    54  47  77 W8        29.86S
FORSYTH          N/A     52  48  87 W6        29.87S
$$

REGIONAL REPORTS...DAKOTAS

CITY           SKY/WX    TMP DP  RH WIND       PRES   REMARKS
WILLISTON      CLEAR     46  44  93 S5        29.81F
MINOT          CLOUDY    59  55  87 SW7       29.73S
DICKINSON      CLEAR     44  40  85 W6        29.80F
BEACH          MOCLDY    45  45 100 SW3       29.88R
CROSBY         CLOUDY    52  52 100 NE5       29.80S
WATFORD CITY     N/A     45  45 100 SW5       29.81S
BISMARCK       CLEAR     51  49  92 SW5       29.79F
GRAND FORKS    CLOUDY    57  55  93 SW8       29.70S
FARGO          CLOUDY    55  53  93 SW6       29.71F
BUFFALO SD       N/A     48  42  80 W6        29.81R
RAPID CITY     CLOUDY    51  46  83 W5        29.90R
$$

REGIONAL REPORTS...WYOMING/IDAHO/WASHINGTON

CITY           SKY/WX    TMP DP  RH WIND       PRES   REMARKS
GILLETTE       CLOUDY    49  41  74 S16       29.91F
SHERIDAN       CLOUDY    42  39  89 NW13      29.93R
BUFFALO WY     CLOUDY    50  38  63 CALM      29.95F
CODY           CLEAR     52  34  50 W12G18    29.97R
YELLOWSTONE LA   N/A     32  31  96 CALM      30.13R
IDAHO FALLS    CLOUDY    45  41  86 CALM      30.05S
SALMON         CLEAR     48  34  57 CALM      30.02S
BOISE          CLEAR     55  43  63 SE6       29.99S
SPOKANE        MOCLDY    61  42  49 SW13      29.99S
$$

REGIONAL REPORTS...ALBERTA

CITY           SKY/WX    TMP DP  RH WIND       PRES   REMARKS
EDMONTON       LGT RAIN  55  50  82 S3        29.90S
CALGARY        MOCLDY    52  50  93 NW7       29.95S
LETHBRIDGE     CLEAR     46  43  87 S8        29.92R FOG
MEDICINE HAT   CLEAR     50  45  81 VRB2      29.91R
WATERTON GATE    N/A     54  43  66 SW15G24     N/A
CARDSTON         N/A     50  45  81 SE2         N/A
MILK RIVER       N/A     43  41  93 SW1         N/A
$$

REGIONAL REPORTS...SASKATCHEWAN

CITY           SKY/WX    TMP DP  RH WIND       PRES   REMARKS
SWIFT CURRENT  MOCLDY    50  48  93 E5        29.88S
REGINA         LGT RAIN  52  50  93 NE8       29.84F
SASKATOON      MOCLDY    54  48  82 N6        29.89R
CYPRESS HILLS    N/A     45  39  81 N5          N/A
VAL MARIE        N/A     48  45  87 N8          N/A
ROCKGLEN         N/A     46  46 100 N6          N/A
$$






000
ASUS45 KTFX 260510
RWRMT
MONTANA REGIONAL WEATHER ROUNDUP
NATIONAL WEATHER SERVICE GREAT FALLS MT
1100 PM MDT WED MAY 25 2016

NOTE: "FAIR" INDICATES FEW OR NO CLOUDS BELOW 12000 FEET WITH NO
SIGNIFICANT WEATHER AND/OR OBSTRUCTIONS TO VISIBILITY.

MTZ001>007-043-260600-
WEST OF THE DIVIDE

CITY           SKY/WX    TMP DP  RH WIND       PRES   REMARKS
KALISPELL      PTCLDY    50  49  96 CALM      29.97R
MISSOULA       PTCLDY    52  46  80 N3        30.02R
BUTTE          CLOUDY    49  34  56 W3        30.04R
MULLAN PASS    CLOUDY    44  41  89 NW6       30.09R
ANACONDA         N/A     52  36  54 W5        30.02S
DEER LODGE       N/A     48  39  71 CALM      30.02S
EUREKA           N/A     57  46  67 SE5         N/A
HAMILTON         N/A     54  39  58 SE5       30.03S
LIBBY            N/A     54  48  82 SE3       29.98R
$$

MTZ008-052>055-260600-
SOUTHWEST MONTANA

CITY           SKY/WX    TMP DP  RH WIND       PRES   REMARKS
BOZEMAN        MOCLDY    52  41  66 SW5       29.98R
DILLON         CLEAR     49  31  49 S3        30.01R
ENNIS          CLEAR     46  37  71 SE9       30.07R
$$

MTZ009-010-012-014-046-048-049-054-260600-
EAST SLOPES AND CENTRAL MONTANA

CITY           SKY/WX    TMP DP  RH WIND       PRES   REMARKS
CUT BANK         N/A     44  40  85 SW3       29.94R
GREAT FALLS    PTCLDY    49  42  77 W3        29.93S
MALMSTROM AFB  PTCLDY    54  46  74 W5        29.92S
HELENA         PTCLDY    55  43  63 S7        29.95S
CHOTEAU          N/A     50  46  87 NW7       29.95R
$$

MTZ011-013-016-021-045-047-050-051-260600-
NORTH CENTRAL MONTANA

CITY           SKY/WX    TMP DP  RH WIND       PRES   REMARKS
HAVRE            N/A    N/A N/A N/A MISG      29.89R
LEWISTOWN      CLEAR     45  40  82 W10       29.92R
N BAR RANCH      N/A     43  39  87 NW8       29.93S
CHINOOK          N/A     46  45  93 CALM      29.89R
$$

MTZ017>020-022>027-061-062-260600-
NORTHEAST MONTANA

CITY           SKY/WX    TMP DP  RH WIND       PRES   REMARKS
GLASGOW        CLOUDY    54  44  69 SW7       29.84R
JORDAN           N/A     53  43  68 NW10      29.85S
SIDNEY         CLEAR     48  46  93 CALM      29.82S
WOLF POINT     PTCLDY    48  43  82 W5        29.83S
PLENTYWOOD       N/A     48  48 100 W5        29.83S
$$

MTZ028>42-056>058-260600-
SOUTHCENTRAL AND SOUTHEAST MONTANA

CITY           SKY/WX    TMP DP  RH WIND       PRES   REMARKS
BAKER          PTCLDY    50  44  80 W6        29.86S
BILLINGS       MOCLDY    49  44  83 S6        29.94S
LIVINGSTON     CLOUDY    52  38  58 CALM      29.96S
MILES CITY     MOCLDY    55  48  77 SW12      29.86R
FORSYTH          N/A     50  48  93 SE7       29.87F
$$

REGIONAL REPORTS...DAKOTAS

CITY           SKY/WX    TMP DP  RH WIND       PRES   REMARKS
WILLISTON      CLEAR     47  45  93 NW6       29.82S
MINOT          CLOUDY    60  55  83 S10       29.73F
DICKINSON      CLEAR     41  38  89 W7        29.81F
BEACH            N/A     45  45 100 CALM      29.86F
CROSBY         LGT RAIN  54  54 100 E12       29.80S
WATFORD CITY     N/A     45  45 100 S3        29.82S
BISMARCK       PTCLDY    55  51  86 W8        29.80R
GRAND FORKS    CLOUDY    59  56  89 SW7       29.70R
FARGO          LGT RAIN  58  54  86 N5        29.73F
BUFFALO SD       N/A     49  42  77 W7        29.80F
RAPID CITY     PTCLDY    50  46  86 NW6       29.89F
$$

REGIONAL REPORTS...WYOMING/IDAHO/WASHINGTON

CITY           SKY/WX    TMP DP  RH WIND       PRES   REMARKS
GILLETTE       PTCLDY    52  45  77 SW16      29.93S
SHERIDAN       CLOUDY    43  40  89 SW6       29.91R
BUFFALO WY     CLOUDY    49  40  71 S7        29.96S
CODY           CLOUDY    52  37  58 CALM      29.96F
YELLOWSTONE LA   N/A     32  29  88 CALM      30.12R
IDAHO FALLS    CLOUDY    48  42  80 SW5       30.05R
SALMON         PTCLDY    55  34  44 SW5       30.01R
BOISE          CLEAR     63  39  41 CALM      29.99R
SPOKANE        MOCLDY    63  43  48 SW14      29.99R
$$

REGIONAL REPORTS...ALBERTA

CITY           SKY/WX    TMP DP  RH WIND       PRES   REMARKS
EDMONTON       CLOUDY    55  48  76 NE3       29.90S
CALGARY        CLOUDY    54  50  87 N9        29.95R
LETHBRIDGE     CLEAR     48  43  81 S9G17     29.91S
MEDICINE HAT   CLEAR     52  46  82 E5        29.90S
WATERTON GATE    N/A     54  43  66 SW14G22     N/A
CARDSTON         N/A     50  45  81 SE3         N/A
MILK RIVER       N/A     48  43  81 S3          N/A
$$

REGIONAL REPORTS...SASKATCHEWAN

CITY           SKY/WX    TMP DP  RH WIND       PRES   REMARKS
SWIFT CURRENT  CLOUDY    50  48  93 E7        29.88S
REGINA         LGT RAIN  52  52 100 NE9       29.85S
SASKATOON      MOCLDY    57  48  72 N6        29.88S
CYPRESS HILLS    N/A     43  39  87 NE2         N/A
VAL MARIE        N/A     52  46  82 NE8         N/A
ROCKGLEN         N/A     43  43 100 N6          N/A
ASSINIBOIA       N/A     61  50  67 N10         N/A
$$






000
ASUS45 KTFX 260110
RWRMT
MONTANA REGIONAL WEATHER ROUNDUP
NATIONAL WEATHER SERVICE GREAT FALLS MT
700 PM MDT WED MAY 25 2016

NOTE: "FAIR" INDICATES FEW OR NO CLOUDS BELOW 12000 FEET WITH NO
SIGNIFICANT WEATHER AND/OR OBSTRUCTIONS TO VISIBILITY.

MTZ001>007-043-260200-
WEST OF THE DIVIDE

CITY           SKY/WX    TMP DP  RH WIND       PRES   REMARKS
KALISPELL      PTSUNNY   60  51  72 SE9       29.95R
MISSOULA       CLOUDY    61  44  53 N14       29.97R
BUTTE          PTSUNNY   57  31  37 NW9       29.99R
MULLAN PASS    PTSUNNY   50  41  71 VRB6      30.07S
ANACONDA         N/A     61  32  33 W13G20    29.97S
DEER LODGE       N/A     61  36  39 W9G17     29.98R
EUREKA           N/A     68  45  42 SE9       29.91S
HAMILTON         N/A     61  43  51 W7        29.98S
LIBBY            N/A     68  45  42 CALM      29.94R
$$

MTZ008-052>055-260200-
SOUTHWEST MONTANA

CITY           SKY/WX    TMP DP  RH WIND       PRES   REMARKS
BOZEMAN        CLOUDY    63  31  30 W12       29.92R
DILLON         CLOUDY    62  27  26 MISG      29.96R
ENNIS          PTSUNNY   59  37  44 S6        30.01S
$$

MTZ009-010-012-014-046-048-049-054-260200-
EAST SLOPES AND CENTRAL MONTANA

CITY           SKY/WX    TMP DP  RH WIND       PRES   REMARKS
CUT BANK         N/A     64  36  35 N17       29.89R
GREAT FALLS    PTSUNNY   56  45  66 SW8       29.87S
MALMSTROM AFB  SUNNY     62  42  47 W16G23    29.86F
HELENA         CLOUDY    59  42  53 SE7       29.93R
CHOTEAU          N/A     61  43  51 W18G24    29.90R
$$

MTZ011-013-016-021-045-047-050-051-260200-
NORTH CENTRAL MONTANA

CITY           SKY/WX    TMP DP  RH WIND       PRES   REMARKS
HAVRE            N/A    N/A N/A N/A MISG      29.85
LEWISTOWN      LGT RAIN  51  44  77 CALM      29.91R
N BAR RANCH      N/A     50  41  71 N10       29.94R
CHINOOK          N/A     61  46  59 S5        29.86R
$$

MTZ017>020-022>027-061-062-260200-
NORTHEAST MONTANA

CITY           SKY/WX    TMP DP  RH WIND       PRES   REMARKS
GLASGOW        CLOUDY    64  42  44 NW7       29.81S
JORDAN           N/A     63  43  48 VRB3      29.82F
SIDNEY         SUNNY     63  46  55 NW6       29.82S
WOLF POINT     SUNNY     64  46  52 N3        29.82F
PLENTYWOOD       N/A     55  48  76 N10       29.82S
$$

MTZ028>42-056>058-260200-
SOUTHCENTRAL AND SOUTHEAST MONTANA

CITY           SKY/WX    TMP DP  RH WIND       PRES   REMARKS
BAKER          PTSUNNY   61  43  51 NW6       29.86S
BILLINGS       PTSUNNY   63  43  48 E10       29.86R
LIVINGSTON     CLOUDY    63  29  27 W17       29.89S
MILES CITY     LGT RAIN  56  48  74 W5        29.84S
FORSYTH          N/A     63  48  59 W5        29.83S
$$

REGIONAL REPORTS...DAKOTAS

CITY           SKY/WX    TMP DP  RH WIND       PRES   REMARKS
WILLISTON      PTSUNNY   56  49  77 NW9       29.81S
MINOT          LGT RAIN  61  58  90 SE7       29.74F
DICKINSON      MOSUNNY   57  42  57 NW14      29.81S
BEACH            N/A     59  39  47 NW10      29.87S
CROSBY         CLOUDY    52  52 100 NW15      29.81S
WATFORD CITY     N/A     57  48  72 NW9       29.81S
BISMARCK       CLOUDY    61  57  87 CALM      29.75S
GRAND FORKS    CLOUDY    62  59  90 CALM      29.65F
FARGO          PTCLDY    66  58  75 SW9       29.72S
BUFFALO SD       N/A     64  43  46 NW10      29.80R
RAPID CITY     CLOUDY    58  49  72 N10       29.88S
$$

REGIONAL REPORTS...WYOMING/IDAHO/WASHINGTON

CITY           SKY/WX    TMP DP  RH WIND       PRES   REMARKS
GILLETTE       CLOUDY    58  43  57 N6        29.93R
SHERIDAN       LGT RAIN  51  46  83 S12       29.91F
BUFFALO WY     CLOUDY    55  42  61 NW6       29.96R
CODY           CLOUDY    57  39  51 CALM      29.94R
YELLOWSTONE LA   N/A     39  34  82 CALM      30.09F
IDAHO FALLS    PTSUNNY   56  40  55 S7        30.02S
SALMON         MOSUNNY   66  36  32 N12       29.93S
BOISE          MOSUNNY   70  39  32 NW9G21    29.96F
SPOKANE        PTSUNNY   71  41  33 W16       29.97S
$$

REGIONAL REPORTS...ALBERTA

CITY           SKY/WX    TMP DP  RH WIND       PRES   REMARKS
EDMONTON       LGT RAIN  57  50  77 W12       29.86R
CALGARY        PTSUNNY   64  37  36 SE8       29.87R
LETHBRIDGE     MOSUNNY   64  39  39 E5        29.88R
MEDICINE HAT   MOSUNNY   64  43  45 N6        29.87R
WATERTON GATE    N/A     55  46  71 SW12        N/A
CARDSTON         N/A     63  46  55 W7          N/A
MILK RIVER       N/A     61  43  51 N9          N/A
$$

REGIONAL REPORTS...SASKATCHEWAN

CITY           SKY/WX    TMP DP  RH WIND       PRES   REMARKS
SWIFT CURRENT  MOSUNNY   57  48  72 E20       29.85S
REGINA         LGT RAIN  55  52  88 N10       29.86R
SASKATOON      PTSUNNY   66  46  48 N9        29.87S
CYPRESS HILLS    N/A     52  39  62 NE3         N/A
VAL MARIE        N/A     61  45  55 N14G20      N/A
ROCKGLEN         N/A     57  43  58 N6          N/A
ASSINIBOIA       N/A     70  43  37 SE5         N/A
$$






000
ASUS45 KTFX 251410
RWRMT
MONTANA REGIONAL WEATHER ROUNDUP
NATIONAL WEATHER SERVICE GREAT FALLS MT
800 AM MDT WED MAY 25 2016

NOTE: "FAIR" INDICATES FEW OR NO CLOUDS BELOW 12000 FEET WITH NO
SIGNIFICANT WEATHER AND/OR OBSTRUCTIONS TO VISIBILITY.

MTZ001>007-043-251500-
WEST OF THE DIVIDE

CITY           SKY/WX    TMP DP  RH WIND       PRES   REMARKS
KALISPELL      CLOUDY    46  44  93 CALM      29.96S
MISSOULA       CLOUDY    43  40  89 CALM      30.02S
BUTTE          MOSUNNY   36  33  89 CALM      30.01R
MULLAN PASS    FOG       39  39 100 NW5       30.01S VSB<1/4
ANACONDA         N/A     43  37  81 E3        29.99S
DEER LODGE       N/A     41  37  87 CALM      30.01S
EUREKA           N/A     46  41  81 SE6       29.96S
HAMILTON         N/A     43  39  87 S5        30.01S
LIBBY            N/A     45  41  87 CALM      29.99R
PLAINS           N/A     44  41  89 CALM      30.01S
$$

MTZ008-052>055-251500-
SOUTHWEST MONTANA

CITY           SKY/WX    TMP DP  RH WIND       PRES   REMARKS
BOZEMAN        PTSUNNY   47  40  76 CALM      29.97S
DILLON         CLOUDY    43  38  82 W3        29.98R
ENNIS          PTSUNNY   45  41  87 CALM      30.04R
TWIN BRIDGES     N/A     45  38  76 SE3       29.98R
$$

MTZ009-010-012-014-046-048-049-054-251500-
EAST SLOPES AND CENTRAL MONTANA

CITY           SKY/WX    TMP DP  RH WIND       PRES   REMARKS
CUT BANK       MOSUNNY   47  43  86 NW7       29.88S
GREAT FALLS    SUNNY     49  40  71 SW13      29.90S
MALMSTROM AFB  SUNNY     49  43  79 SW13      29.90S
HELENA         SUNNY     45  40  82 N3        29.95S
CHOTEAU          N/A     52  41  66 SW7       29.89S
$$

MTZ011-013-016-021-045-047-050-051-251500-
NORTH CENTRAL MONTANA

CITY           SKY/WX    TMP DP  RH WIND       PRES   REMARKS
HAVRE            N/A    N/A N/A N/A MISG      29.88R
LEWISTOWN      SUNNY     49  40  71 CALM      29.91S
N BAR RANCH      N/A     46  39  76 CALM      29.93F
CHINOOK          N/A     48  46  93 CALM      29.88S
$$

MTZ017>020-022>027-061-062-251500-
NORTHEAST MONTANA

CITY           SKY/WX    TMP DP  RH WIND       PRES   REMARKS
GLASGOW        CLOUDY    49  44  83 E6        29.88S
JORDAN           N/A     49  44  83 CALM      29.89S
SIDNEY         LGT RAIN  51  49  92 NW15      29.85S
WOLF POINT     CLOUDY    53  49  86 E3        29.89S
PLENTYWOOD       N/A     52  50  93 NW12      29.87F
POPLAR           N/A     50  48  93 CALM      29.91S VSB 1
SCOBEY           N/A     43  34  70 CALM      29.89R
$$

MTZ028>42-056>058-251500-
SOUTHCENTRAL AND SOUTHEAST MONTANA

CITY           SKY/WX    TMP DP  RH WIND       PRES   REMARKS
BAKER          CLOUDY    49  47  93 NW14      29.86R
BILLINGS       MOSUNNY   50  43  77 SW7       29.92R
LIVINGSTON     CLOUDY    45  39  79 NW8       29.95R
MILES CITY     LGT RAIN  52  48  86 CALM      29.88S
EKALAKA          N/A     47  44  89 NW8       29.87R
FORSYTH          N/A     52  48  87 W8        29.88S
$$

REGIONAL REPORTS...DAKOTAS

CITY           SKY/WX    TMP DP  RH WIND       PRES   REMARKS
WILLISTON      CLOUDY    54  49  83 N9        29.84S
MINOT          CLOUDY    59  55  87 NW3       29.82F
DICKINSON      CLOUDY    54  51  90 SE7       29.81S
BEACH          LGT RAIN  48  48 100 NW10      29.86F
CROSBY         RAIN      50  50 100 NE7       29.89R
WATFORD CITY   CLOUDY    54  52  94 N7        29.82F
BISMARCK       PTSUNNY   61  55  81 N3        29.81F
GRAND FORKS    CLOUDY    66  54  65 SE9       29.83R
FARGO          CLOUDY    68  56  65 SE14      29.79F
BUFFALO SD       N/A     54  49  83 SW6       29.78R
RAPID CITY     SUNNY     57  50  77 S6        29.85F
$$

REGIONAL REPORTS...WYOMING/IDAHO/WASHINGTON

CITY           SKY/WX    TMP DP  RH WIND       PRES   REMARKS
GILLETTE       CLOUDY    48  46  93 NW6       29.92R
SHERIDAN       CLOUDY    51  46  83 SE5       29.92R
BUFFALO WY     LGT RAIN  46  43  89 W3        29.95R FOG
CODY           CLOUDY    46  43  87 CALM      29.94R
YELLOWSTONE LA   N/A     33  31  92 CALM      30.04R
IDAHO FALLS    CLOUDY    47  44  90 N3        30.00R
SALMON         PTSUNNY   45  37  76 N5        30.00R
BOISE          MOSUNNY   52  42  69 NW7       29.99R
SPOKANE        MOSUNNY   48  44  86 S8        29.98R
$$

REGIONAL REPORTS...ALBERTA

CITY           SKY/WX    TMP DP  RH WIND       PRES   REMARKS
EDMONTON       SUNNY     52  45  76 S12       29.84S
CALGARY        SUNNY     48  41  76 SW3       29.87R
LETHBRIDGE     MOSUNNY   48  43  81 VRB2      29.86S
MEDICINE HAT   MOSUNNY   46  43  87 CALM      29.88S
WATERTON GATE    N/A     52  39  62 SW18G26     N/A
MILK RIVER       N/A     46  39  76 W8          N/A
ONEFOUR          N/A     50  45  81 E7          N/A
$$

REGIONAL REPORTS...SASKATCHEWAN

CITY           SKY/WX    TMP DP  RH WIND       PRES   REMARKS
SWIFT CURRENT  FOG       46  46 100 W5        29.88S VSB 1/8
REGINA         PTSUNNY   48  43  81 SE5       29.90S
SASKATOON      FOG       48  48 100 NE7       29.92R VSB 1/2
CYPRESS HILLS    N/A     46  41  81 SW5         N/A
VAL MARIE        N/A     43  41  93 NE1         N/A
ROCKGLEN         N/A     46  45  93 W1          N/A
ASSINIBOIA       N/A     52  48  87 S8          N/A
$$






000
ASUS45 KTFX 251210
RWRMT
MONTANA REGIONAL WEATHER ROUNDUP
NATIONAL WEATHER SERVICE GREAT FALLS MT
600 AM MDT WED MAY 25 2016

NOTE: "FAIR" INDICATES FEW OR NO CLOUDS BELOW 12000 FEET WITH NO
SIGNIFICANT WEATHER AND/OR OBSTRUCTIONS TO VISIBILITY.

MTZ001>007-043-251300-
WEST OF THE DIVIDE

CITY           SKY/WX    TMP DP  RH WIND       PRES   REMARKS
KALISPELL      CLOUDY    44  44 100 CALM      29.95R
MISSOULA       MOCLDY    36  34  92 CALM      30.00R
BUTTE          CLOUDY    31  29  92 S3        29.99R
MULLAN PASS    FOG       38  38 100 NW6       29.99S VSB 1/2
ANACONDA         N/A     32  30  93 CALM      29.98S
DEER LODGE       N/A     36  36 100 CALM      30.00R
EUREKA           N/A     39  37  93 CALM      29.95R
HAMILTON         N/A     37  36  93 CALM      29.99R
LIBBY            N/A     39  37  93 CALM      29.97S
PLAINS           N/A     41  38  89 CALM      29.99R
$$

MTZ008-052>055-251300-
SOUTHWEST MONTANA

CITY           SKY/WX    TMP DP  RH WIND       PRES   REMARKS
BOZEMAN        CLOUDY    41  38  89 SE7       29.95S
DILLON         MOCLDY    40  36  86 SW6       29.96R
ENNIS          CLOUDY    43  41  93 CALM      30.01S
TWIN BRIDGES     N/A     41  35  79 CALM      29.96R
$$

MTZ009-010-012-014-046-048-049-054-251300-
EAST SLOPES AND CENTRAL MONTANA

CITY           SKY/WX    TMP DP  RH WIND       PRES   REMARKS
CUT BANK       CLEAR     38  36  92 NW5       29.87S
GREAT FALLS    CLEAR     38  35  89 S8        29.89S
MALMSTROM AFB  CLEAR     38  37  97 S2        29.90S
HELENA         CLEAR     40  37  89 CALM      29.94R
CHOTEAU          N/A     41  36  81 SW7       29.89S
CONRAD           N/A     34  34 100 SW3       29.91R
$$

MTZ011-013-016-021-045-047-050-051-251300-
NORTH CENTRAL MONTANA

CITY           SKY/WX    TMP DP  RH WIND       PRES   REMARKS
HAVRE            N/A    N/A N/A N/A MISG      29.86F
LEWISTOWN      CLOUDY    40  36  86 SE5       29.91S
N BAR RANCH      N/A     34  32  93 NW5       29.93S
CHINOOK          N/A     39  39 100 CALM      29.89R
$$

MTZ017>020-022>027-061-062-251300-
NORTHEAST MONTANA

CITY           SKY/WX    TMP DP  RH WIND       PRES   REMARKS
GLASGOW        MOCLDY    45  41  86 E3        29.88R
JORDAN           N/A     46  43  89 CALM      29.88R
SIDNEY         CLOUDY    52  48  87 NW7       29.84R
WOLF POINT     LGT RAIN  51  49  92 W5        29.88S
PLENTYWOOD       N/A     52  48  87 N7        29.88F
POPLAR           N/A     48  48 100 N8        29.88S
SCOBEY           N/A     41  31  68 CALM      29.88S
$$

MTZ028>42-056>058-251300-
SOUTHCENTRAL AND SOUTHEAST MONTANA

CITY           SKY/WX    TMP DP  RH WIND       PRES   REMARKS
BAKER          CLOUDY    50  46  86 W13       29.84R
BILLINGS       CLOUDY    46  44  93 W5        29.91S
LIVINGSTON     CLOUDY    41  37  86 NW7       29.94R
MILES CITY     CLOUDY    51  48  89 NE6       29.88S
EKALAKA          N/A     47  44  89 W5        29.85R
FORSYTH          N/A     54  52  94 SW6       29.87S
$$

REGIONAL REPORTS...DAKOTAS

CITY           SKY/WX    TMP DP  RH WIND       PRES   REMARKS
WILLISTON      CLOUDY    52  47  83 NE12      29.84F
MINOT          RAIN      58  55  90 CALM      29.85S FOG
DICKINSON      CLOUDY    50  48  93 E7        29.81S
BEACH          LGT RAIN  48  48 100 N7        29.85F
CROSBY         MOCLDY    50  50 100 NW7       29.88F
WATFORD CITY   MOCLDY    50  48  93 NE6       29.84R
BISMARCK       CLOUDY    57  56  96 NE6       29.81S
GRAND FORKS    CLOUDY    60  53  77 E9        29.81F
FARGO          CLOUDY    66  51  58 E16       29.79F
BUFFALO SD       N/A     52  47  83 SW3       29.77S
RAPID CITY     CLOUDY    47  45  93 W5        29.86R
$$

REGIONAL REPORTS...WYOMING/IDAHO/WASHINGTON

CITY           SKY/WX    TMP DP  RH WIND       PRES   REMARKS
GILLETTE         N/A     48  46  93 NW5       29.89S
SHERIDAN       CLOUDY    48  45  89 CALM      29.91S
BUFFALO WY     CLOUDY    46  42  86 N5        29.94R
CODY           CLOUDY    45  43  93 CALM      29.92S
YELLOWSTONE LA   N/A     33  31  92 CALM      30.02R
IDAHO FALLS    CLOUDY    45  43  93 N5        29.98S
SALMON         CLOUDY    45  37  76 CALM      29.97R
BOISE          PTCLDY    51  41  68 W6        29.96R
SPOKANE        PTCLDY    49  45  86 S6        29.95R
$$

REGIONAL REPORTS...ALBERTA

CITY           SKY/WX    TMP DP  RH WIND       PRES   REMARKS
EDMONTON       CLEAR     45  39  81 SE6       29.83S
CALGARY        CLEAR     43  39  87 S3        29.86R
LETHBRIDGE     PTCLDY    37  36  93 S9        29.85S WCI  31
MEDICINE HAT   CLEAR     37  37 100 E3        29.88R
$$

REGIONAL REPORTS...SASKATCHEWAN

CITY           SKY/WX    TMP DP  RH WIND       PRES   REMARKS
SWIFT CURRENT  FOG       45  45 100 SW6       29.87R VSB 1/8
REGINA         PTCLDY    39  37  93 S2        29.89S
SASKATOON      FOG       43  43 100 NE9       29.90S VSB 1/2
$$






    US Dept of Commerce
    National Oceanic and Atmospheric Administration
    National Weather Service
    1325 East West Highway
    Silver Spring, MD 20910
    Page Author: NWS Internet Services Team
Disclaimer
Information Quality
Credits
Glossary
Privacy Policy
Freedom of Information Act (FOIA)
About Us
Career Opportunities